www.pogodaiklimat.ru

Погода и климат >> Архив погоды >> Греция >> Каламата


ПОГОДА в Каламате

  • Прогноз погоды в Каламате
  • Монитор погоды в Каламате

АРХИВ ПОГОДЫ в Каламате

Время (UTC), дата Ветер
(напр.,м/с)
 
Видим.   Явления Облачность Т
(С)
Тd
(С)
f
(%)
Тe
(С)
Тes
(С)
Комфортность P
(гПа)
Po
(гПа)
Тmin
(С)
Tmax
(С)
R
(мм)
R24
(мм)
S
(см)
15 14.07 СЗ 4
{11}
10 км 3/3 600 м
[Cu med, cong]
+30.8 +15.1 39 +33 +36 душно 1005.2 1004.3
18 14.07 штиль 0
{8}
10 км 3/3 600 м
[Cu med, cong]
+25.4 +15.9 56 +29 +29 душно 1006.4 1005.5 +33.0
21 14.07 штиль 0
{5}
10 км ясно +21.2 +14.6 66 +24 +24 комфорт 1007.3 1006.4
00 15.07 штиль 0
{4}
10 км ясно +18.6 +12.0 65 +19 +19 1007.6 1006.7
03 15.07 СЗ 2
{4}
10 км ясно +16.4 +11.3 72 +17 +17 1008.0 1007.0
06 15.07 С 3
{4}
10 км 5/0 2000 м
[Ac trans Cs]
+22.4 +12.8 55 +25 +29 комфорт 1010.3 1009.4 +16.4 268
09 15.07 штиль 0
{5}
10 км в посл. час морось 10/1 900 м
[Cu hum Ac cuf Cs]
+26.0 +13.3 45 +28 +39 жарко 1009.0 1008.1
12 15.07 Ю 3
{5}
10 км 8/3 900 м
[Cu med, cong Ac cuf Cs]
+27.4 +13.0 41 +29 +37 жарко 1008.5 1007.6
15 15.07 СЗ 3
{7}
10 км в посл. час дождь {гроза} 8/1 540 м
[Cu med, cong Ac cuf Cs]
+20.2 +16.7 80 +23 +26 комфорт 1009.1 1008.2
18 15.07 С 2
{5}
10 км 8/1 900 м
[Cu med, cong Ac As Cs]
+20.6 +15.9 74 +24 +24 комфорт 1008.0 1007.1 +27.4 0.5
21 15.07 С 2
{4}
10 км 8/1 900 м
[Cu med, cong Ac As]
+20.4 +16.1 76 +24 +24 комфорт 1008.0 1007.1
00 16.07 С 2
{3}
10 км 8/1 900 м
[Cu med, cong Ac und]
+20.0 +16.1 78 +23 +23 комфорт 1007.1 1006.2
03 16.07 С 3
{5}
10 км 4/0
[Ac lent Ci fib]
+20.4 +15.3 73 +24 +24 комфорт 1005.0 1004.1
06 16.07 штиль 0
{5}
10 км 5/0 2000 м
[Ac trans Ci fib]
+24.2 +16.3 61 +28 +33 душно 1005.3 1004.4 +19.4 282
09 16.07 Ю 3
{4}
10 км 4/1 600 м
[Cu hum Ac trans]
+29.6 +14.5 40 +32 +44 душно 1004.1 1003.2
12 16.07 ЮЗ 4
{8}
10 км 5/4 600 м
[Cu Sc Ac trans Ci fib]
+28.6 +16.7 49 +32 +40 душно 1003.4 1002.5
15 16.07 штиль 0
{7}
10 км гроза без осадков 8/5 540 м
[Cb cap Ac und Cs]
+22.8 +19.1 80 +29 +32 очень
душно
1004.3 1003.4
18 16.07 штиль 0
{8}
10 км в посл. час гроза {дождь} 8/4 600 м
[Cu Sc Ac und]
+20.2 +18.9 92 +23 +23 комфорт 1004.2 1003.3 +30.3 21
21 16.07 С 2
{4}
10 км 4/1 600 м
[Cu hum Ac und]
+19.0 +17.3 90 +21 +21 комфорт 1005.1 1004.2
00 17.07 штиль 0
{4}
10 км 6/1 900 м
[Cu hum Ac und Cs]
+19.0 +16.4 85 +20 +20 1003.9 1003.0
03 17.07 С 2
{5}
10 км 5/3 900 м
[Sc diur, vesp Ac und]
+19.6 +15.4 77 +22 +22 комфорт 1003.9 1003.0
06 17.07 СЗ 3
{6}
10 км 5/1 900 м
[Cu med, cong Ac lent Ci fib]
+23.8 +14.3 55 +26 +29 жарко 1005.1 1004.2 +18.7 224
09 17.07 С 3
{7}
10 км 6/3 900 м
[Cu hum Ac und Ci fib]
+25.0 +13.3 48 +27 +35 жарко 1006.6 1005.7
12 17.07 штиль 0
{8}
10 км 5/3 900 м
[Cu hum Ac und Ci fib]
+30.4 +10.1 28 +30 +45 жарко 1006.3 1005.4
15 17.07 Ю 3
{7}
10 км 8/3 900 м
[Cu hum Ac und Ci fib]
+26.2 +15.7 52 +29 +32 жарко 1007.2 1006.3
18 17.07 штиль 0
{5}
10 км 5/3 900 м
[Cu hum Ac und Ci fib]
+23.6 +15.9 62 +27 +27 жарко 1008.1 1007.2 +30.4
21 17.07 штиль 0
{3}
10 км 1/0
[Ac lent]
+20.8 +16.6 77 +24 +24 комфорт 1009.7 1008.8
00 18.07 СЗ 2
{4}
10 км 1/0 2000 м
[Ac lent]
+18.2 +13.5 74 +19 +19 1009.4 1008.5
03 18.07 штиль 0
{5}
10 км ясно +18.0 +11.0 64 +18 +18 1009.8 1008.9
06 18.07 штиль 0
{3}
10 км ясно +23.8 +12.3 48 +26 +33 жарко 1010.9 1010.0 +16.8 258
09 18.07 Ю 3
{5}
10 км 1/1 600 м
[Cu hum]
+29.6 +8.2 26 +29 +42 жарко 1011.4 1010.5
12 18.07 ЮВ 5
{7}
10 км 3/3 600 м
[Cu med, cong]
+29.4 +12.7 36 +31 +38 жарко 1011.3 1010.4
15 18.07 штиль 0
{8}
10 км 4/4 600 м
[Cu med, cong]
+30.2 +10.9 30 +30 +35 жарко 1011.2 1010.3
18 18.07 штиль 0
{9}
10 км 4/4 600 м
[Sc diur, vesp]
+25.4 +11.2 41 +27 +27 жарко 1012.2 1011.3 +30.2
21 18.07 штиль 0
{3}
10 км 1/1 600 м
[Cu hum Ac lent]
+20.2 +14.5 70 +22 +22 комфорт 1013.6 1012.7
00 19.07 штиль 0
{4}
10 км ясно +18.2 +14.0 76 +18 +18 1013.3 1012.3
03 19.07 СЗ 3
{4}
10 км 1/1 1000 м
[Cu med, cong]
+17.2 +12.7 75 +17 +17 1013.1 1012.1
06 19.07 С 2
{4}
10 км ясно +24.8 +12.5 46 +27 +32 жарко 1013.4 1012.5 +17.2 260
09 19.07 ЮВ 4
{6}
10 км 3/3 600 м
[Cu med, cong]
+28.6 +13.9 41 +31 +40 жарко 1013.6 1012.7
12 19.07 Ю 5
{8}
10 км 4/3 600 м
[Cu med, cong Ac lent]
+29.4 +11.3 33 +30 +36 жарко 1013.4 1012.5
15 19.07 ЮВ 4
{9}
10 км 5/1 600 м
[Cu med, cong Ac lent Cs]
+30.0 +10.2 29 +30 +32 жарко 1013.1 1012.2
18 19.07 С 2
{7}
10 км 5/3 600 м
[Cu med, cong Ac trans Ci fib]
+26.6 +11.3 38 +28 +28 жарко 1013.8 1012.9 +30.4
21 19.07 штиль 0
{4}
10 км 3/3 600 м
[Cu med, cong]
+21.0 +16.6 76 +24 +24 комфорт 1014.8 1013.9
00 20.07 С 4
{6}
10 км 3/3 600 м
[Cu med, cong]
+21.8 +14.5 63 +25 +25 комфорт 1014.6 1013.7
03 20.07 С 4
{5}
10 км ясно +20.0 +13.2 65 +22 +22 комфорт 1014.5 1013.6
06 20.07 С 2
{6}
10 км ясно +25.2 +12.8 46 +27 +32 жарко 1015.4 1014.5 +18.6 242
09 20.07 Ю 3
{5}
10 км 1/0
[Ac lent]
+30.0 +11.5 32 +31 +44 жарко 1015.6 1014.7
12 20.07 Ю 5
{8}
10 км 4/0
[Ac und]
+31.2 +11.7 30 +32 +38 жарко 1015.6 1014.7
15 20.07 Ю 3
{8}
10 км 4/0
[Ac und]
+31.0 +11.9 31 +31 +35 жарко 1014.9 1014.0
18 20.07 штиль 0
{6}
10 км 4/0
[Ac und]
+27.0 +12.6 41 +29 +29 жарко 1015.8 1014.9 +31.2
21 20.07 штиль 0
{5}
10 км 1/1 600 м
[Cu hum]
+21.4 +15.9 71 +25 +25 комфорт 1016.6 1015.7
00 21.07 СЗ 2
{4}
10 км ясно +18.8 +14.3 75 +20 +20 1016.4 1015.4
03 21.07 С 3
{5}
10 км ясно +20.2 +11.1 56 +22 +22 комфорт 1015.9 1015.0
06 21.07 СЗ 3
{6}
10 км ясно +25.8 +11.9 42 +27 +32 жарко 1016.7 1015.8 +18.2 244
09 21.07 С 2
{6}
10 км ясно +34.4 +8.3 20 +33 +50 жарко 1015.6 1014.7
12 21.07 Ю 4
{7}
10 км ясно +31.8 +16.1 39 +35 +48 очень
душно
1015.2 1014.3

 

Местоположение метеостанции Каламата (Греция): широта 37.07 долгота 22.02 высота над уровнем моря 8 м.

В архиве по умолчанию представлена погода в Каламате за последнюю неделю. Архивные данные за месяц целиком и за предыдущие месяцы, начиная с января 2011 года, Вы можете получить, выбрав интересующий диапазон дат из раскрывающегося списка и нажав кнопку "Ввод!".


*Определитесь, кто Вы:
робот инопланетянин человек

Внимание! Время в таблицах - всемирное. Для получения местного времени необходимо прибавить поправку, которая равна 2 ч.

Смотрите также архив погоды в соседних городах и на ближайших метеорологических станциях:

Погода в Мефони (Греция) (39 км)
Погода в Триполисе (Греция) (61 км)
Погода в Астросе (Греция) (73 км)
Погода в Аргосе (Греция) (90 км)
Погода в Андравиде (Греция) (115 км)
Погода на Китире (Греция) (125 км)
Погода в Элефисисе (Греция) (175 км)
Погода в Афинах (Греция) (177 км)
Погода в Кефалонии (Греция) (178 км)
Погода в Элефтериос Венизелос (Греция) (192 км)

Пояснения к столбцам:

Ветер - указаны скорость ветра в м/с - средняя за 10 мин, порывы в срок и между сроками (в фигурных скобках) и направление, откуда дует ветер: С - северный, СВ - северо-восточный, В - восточный, ЮВ - юго-восточный, Ю - южный, ЮЗ - юго-западный, З - западный, СЗ - северо-западный.
Видимость - горизонтальная дальность видимости в метрах или километрах. При видимости от 1 до 10 км при отсутствии осадков обычно наблюдается дымка, при ухудшении видимости до 1 км и менее - туман. В сухую погоду видимость может ухудшаться дымом, пылью или мглою.
Явления - указаны атмосферные явления, наблюдавшиеся в срок или в последний час перед сроком; фигурными скобками обозначены явления, наблюдавшиеся между сроками (за 1-3 часа до срока); квадратными скобками обозначены град или гололедные отложения с указанием их диаметра в мм.
Облачность - указаны через наклонную черту общая и нижняя облачность в баллах и высота нижней границы облаков в метрах; квадратными скобками обозначены формы облаков: Ci - перистые, Cs - перисто-слоистые, Cc - перисто-кучевые, Ac - высококучевые, As - высокослоистые, Sc - слоисто-кучевые, Ns - слоисто-дождевые, Cu - кучевые, Cb - кучево-дождевые. Подробнее классификацию облаков см. в Атласе облаков (PDF).
T - Температура воздуха - температура, измеренная на высоте 2 м над землей.
Td - Температура точки росы - температура, при понижении до которой содержащийся в воздухе водяной пар достигнет насыщения.
f - Относительная влажность воздуха - влажноcть воздуха, измеренная на высоте 2 м над землей.
Te - Эффективная температура - температура, которую ощущает одетый по сезону человек в тени. Характеристика душности погоды. При расчете учитывается влияние влажности воздуха и скорости ветра на теплоощущения человека.
Tes - Эффективная температура на солнце - температура, которую ощущает человек, с поправкой на солнечный нагрев. Характеристика знойности погоды. Зависит от высоты солнца над горизонтом, облачности и скорости ветра. Ночью, в пасмурную погоду, а также при ветре 12 м/с и более поправка равна нулю.
P - Атмосферное давление - приведенное к уровню моря атмосферное давление.
Po - Атмосферное давление - измеренное на уровне метеостанции атмосферное давление.
Tmin - Минимальная температура - минимум температуры воздуха на высоте 2 м над землей.
Tmax - Максимальная температура - максимум температуры воздуха на высоте 2 м над землей.
R - Количество осадков - Количество выпавших осадков за период времени, мм. При наведении курсора мыши на число - период времени, за который выпало указанное количество осадков.
R24 - Количество осадков - Количество выпавших осадков за 24 часа, мм.
S - Снежный покров - Высота снежного покрова, см. При наведении курсора мыши на число - состояние снежного покрова и степень покрытия местности в баллах.